| time (UTC) | temp F | wind direction | speed knots | gust knots | rain 1hr in | rain 24hr in | rain mn in | humidity % | barometer mb |
| 20260508101016 | 57 | 125 | 2.6 | 5.2 | 0.00 | 0.00 | 0.00 | 75 | 1019.0 |
| 20260508095516 | 57 | 160 | 0.9 | 1.7 | 0.00 | 0.00 | 0.00 | 73 | 1018.8 |
| 20260508094016 | 56 | 152 | 1.7 | 1.7 | 0.00 | 0.00 | 0.00 | 75 | 1018.8 |
| 20260508092516 | 56 | 101 | 1.7 | 1.7 | 0.00 | 0.00 | 0.00 | 76 | 1018.7 |
| 20260508091016 | 55 | 0 | 0.0 | 0.0 | 0.00 | 0.00 | 0.00 | 79 | 1018.9 |
| 20260508085516 | 53 | 97 | 0.9 | 0.9 | 0.00 | 0.00 | 0.00 | 81 | 1018.7 |
| 20260508084016 | 52 | 0 | 0.0 | 0.0 | 0.00 | 0.00 | 0.00 | 81 | 1018.8 |
| 20260508082516 | 53 | 123 | 0.0 | 0.9 | 0.00 | 0.00 | 0.00 | 81 | 1018.7 |
| 20260508081016 | 53 | 0 | 0.0 | 0.0 | 0.00 | 0.00 | 0.00 | 80 | 1018.5 |
| 20260508075516 | 52 | 0 | 0.0 | 0.0 | 0.00 | 0.00 | 0.00 | 79 | 1018.3 |
| 20260508074016 | 51 | 0 | 0.0 | 0.0 | 0.00 | 0.00 | 0.00 | 79 | 1018.2 |
| 20260508072516 | 51 | 194 | 0.9 | 2.6 | 0.00 | 0.00 | 0.00 | 80 | 1018.4 |
| 20260508071016 | 50 | 0 | 0.0 | 0.0 | 0.00 | 0.00 | 0.00 | 82 | 1018.1 |
| 20260508065516 | 49 | 0 | 0.0 | 0.0 | 0.00 | 0.00 | 0.00 | 82 | 1017.8 |
| 20260508064016 | 49 | 0 | 0.0 | 0.0 | 0.00 | 0.00 | 0.00 | 82 | 1017.9 |
| 20260508062516 | 49 | 0 | 0.0 | 0.0 | 0.00 | 0.00 | 0.00 | 83 | 1018.0 |
| 20260508061016 | 48 | 0 | 0.0 | 0.0 | 0.00 | 0.00 | 0.00 | 83 | 1017.8 |
| 20260508055516 | 48 | 0 | 0.0 | 0.0 | 0.00 | 0.00 | 0.00 | 84 | 1017.6 |
| 20260508054016 | 47 | 0 | 0.0 | 0.0 | 0.00 | 0.00 | 0.00 | 85 | 1017.6 |
| 20260508052516 | 47 | 0 | 0.0 | 0.0 | 0.00 | 0.00 | 0.00 | 85 | 1017.3 |
| 20260508051016 | 46 | 0 | 0.0 | 0.0 | 0.00 | 0.00 | 0.00 | 85 | 1017.4 |
| 20260508045516 | 46 | 0 | 0.0 | 0.0 | 0.00 | 0.00 | 0.00 | 85 | 1017.3 |
| 20260508044016 | 46 | 0 | 0.0 | 0.0 | 0.00 | 0.00 | 0.00 | 85 | 1017.4 |
| 20260508042516 | 46 | 0 | 0.0 | 0.0 | 0.00 | 0.00 | 0.00 | 85 | 1017.4 |
| 20260508041016 | 46 | 0 | 0.0 | 0.0 | 0.00 | 0.00 | 0.00 | 83 | 1017.3 |
| 20260508035516 | 47 | 0 | 0.0 | 0.0 | 0.00 | 0.00 | 0.00 | 82 | 1017.3 |
| 20260508034016 | 47 | 0 | 0.0 | 0.0 | 0.00 | 0.00 | 0.00 | 82 | 1017.5 |
| 20260508032516 | 47 | 0 | 0.0 | 0.0 | 0.00 | 0.00 | 0.00 | 82 | 1017.3 |
| 20260508031016 | 46 | 0 | 0.0 | 0.0 | 0.00 | 0.00 | 0.00 | 85 | 1016.8 |
| 20260508025516 | 46 | 0 | 0.0 | 0.0 | 0.00 | 0.00 | 0.00 | 85 | 1017.2 |
| 20260508024016 | 46 | 0 | 0.0 | 0.0 | 0.00 | 0.00 | 0.00 | 85 | 1017.1 |
| 20260508022516 | 47 | 0 | 0.0 | 0.0 | 0.00 | 0.00 | 0.00 | 85 | 1017.1 |
| 20260508021016 | 47 | 0 | 0.0 | 0.0 | 0.00 | 0.00 | 0.00 | 84 | 1016.9 |
| 20260508015516 | 47 | 0 | 0.0 | 0.0 | 0.00 | 0.00 | 0.00 | 83 | 1016.9 |
| 20260508014016 | 48 | 0 | 0.0 | 0.0 | 0.00 | 0.00 | 0.00 | 83 | 1017.0 |
| 20260508012516 | 49 | 176 | 2.6 | 2.6 | 0.00 | 0.00 | 0.00 | 80 | 1017.1 |
| 20260508011016 | 49 | 176 | 2.6 | 2.6 | 0.00 | 0.00 | 0.00 | 80 | 1017.1 |
| 20260508005516 | 50 | 0 | 0.0 | 0.0 | 0.00 | 0.00 | 0.00 | 79 | 1016.8 |
| 20260508004016 | 50 | 194 | 0.9 | 0.9 | 0.00 | 0.00 | 0.00 | 79 | 1017.0 |
| 20260508002516 | 50 | 0 | 0.0 | 0.0 | 0.00 | 0.00 | 0.00 | 79 | 1017.1 |
| 20260508001016 | 50 | 0 | 0.0 | 0.0 | 0.00 | 0.00 | 0.00 | 79 | 1016.9 |
| 20260507235516 | 50 | 164 | 3.5 | 5.2 | 0.00 | 0.00 | 0.00 | 78 | 1017.2 |
| 20260507234016 | 51 | 182 | 3.5 | 3.5 | 0.00 | 0.00 | 0.00 | 78 | 1017.3 |
| 20260507232516 | 50 | 182 | 1.7 | 1.7 | 0.00 | 0.00 | 0.00 | 78 | 1017.1 |
| 20260507231016 | 50 | 168 | 0.9 | 0.9 | 0.00 | 0.00 | 0.00 | 77 | 1017.3 |
| 20260507225516 | 51 | 177 | 1.7 | 1.7 | 0.00 | 0.00 | 0.00 | 77 | 1017.3 |
| 20260507224016 | 51 | 175 | 1.7 | 1.7 | 0.00 | 0.00 | 0.00 | 75 | 1017.0 |
| 20260507222516 | 51 | 0 | 0.0 | 0.0 | 0.00 | 0.00 | 0.00 | 74 | 1017.0 |
| 20260507221016 | 51 | 0 | 0.0 | 0.0 | 0.00 | 0.00 | 0.00 | 74 | 1017.0 |
| 20260507215516 | 51 | 186 | 4.3 | 6.1 | 0.00 | 0.00 | 0.00 | 73 | 1017.0 |
| 20260507214016 | 52 | 179 | 3.5 | 3.5 | 0.00 | 0.00 | 0.00 | 73 | 1017.1 |
| 20260507212516 | 52 | 177 | 3.5 | 5.2 | 0.00 | 0.00 | 0.00 | 72 | 1017.2 |
| 20260507211016 | 52 | 164 | 3.5 | 3.5 | 0.00 | 0.00 | 0.00 | 71 | 1016.9 |
| 20260507205516 | 52 | 183 | 3.5 | 5.2 | 0.00 | 0.00 | 0.00 | 71 | 1016.8 |
| 20260507204016 | 52 | 174 | 3.5 | 3.5 | 0.00 | 0.00 | 0.00 | 70 | 1016.7 |
| 20260507202516 | 53 | 180 | 2.6 | 3.5 | 0.00 | 0.00 | 0.00 | 69 | 1016.6 |
| 20260507201016 | 53 | 166 | 0.9 | 2.6 | 0.00 | 0.00 | 0.00 | 67 | 1016.6 |
| 20260507195516 | 53 | 180 | 3.5 | 5.2 | 0.00 | 0.00 | 0.00 | 66 | 1016.3 |
| 20260507194016 | 53 | 165 | 3.5 | 3.5 | 0.00 | 0.00 | 0.00 | 66 | 1016.0 |
| 20260507192516 | 54 | 169 | 1.7 | 2.6 | 0.00 | 0.00 | 0.00 | 66 | 1016.2 |
| 20260507191016 | 54 | 176 | 3.5 | 3.5 | 0.00 | 0.00 | 0.00 | 66 | 1016.0 |
| 20260507185516 | 54 | 164 | 2.6 | 3.5 | 0.00 | 0.00 | 0.00 | 65 | 1016.3 |
| 20260507184016 | 54 | 180 | 3.5 | 5.2 | 0.00 | 0.00 | 0.00 | 64 | 1015.9 |
| 20260507182516 | 55 | 165 | 2.6 | 5.2 | 0.00 | 0.00 | 0.00 | 63 | 1016.0 |
| 20260507181016 | 55 | 145 | 1.7 | 2.6 | 0.00 | 0.00 | 0.00 | 63 | 1015.9 |
| 20260507175516 | 55 | 199 | 2.6 | 5.2 | 0.00 | 0.00 | 0.00 | 63 | 1015.7 |
| 20260507174016 | 56 | 182 | 4.3 | 7.0 | 0.00 | 0.00 | 0.00 | 60 | 1015.9 |
| 20260507172516 | 56 | 180 | 5.2 | 7.0 | 0.00 | 0.00 | 0.00 | 60 | 1016.0 |
| 20260507171016 | 56 | 144 | 3.5 | 6.1 | 0.00 | 0.00 | 0.00 | 60 | 1015.9 |
| 20260507165516 | 56 | 166 | 2.6 | 5.2 | 0.00 | 0.00 | 0.00 | 60 | 1015.9 |
| 20260507164017 | 56 | 179 | 6.1 | 7.0 | 0.00 | 0.00 | 0.00 | 59 | 1016.0 |
| 20260507162517 | 56 | 142 | 2.6 | 5.2 | 0.00 | 0.00 | 0.00 | 59 | 1015.9 |
| 20260507161017 | 56 | 139 | 2.6 | 3.5 | 0.00 | 0.00 | 0.00 | 62 | 1016.1 |
| 20260507155517 | 55 | 140 | 1.7 | 2.6 | 0.00 | 0.00 | 0.00 | 64 | 1016.1 |
| 20260507154017 | 55 | 164 | 1.7 | 2.6 | 0.00 | 0.00 | 0.00 | 65 | 1016.3 |
| 20260507152517 | 54 | 183 | 3.5 | 5.2 | 0.00 | 0.00 | 0.00 | 65 | 1016.5 |
| 20260507151017 | 54 | 172 | 3.5 | 6.1 | 0.00 | 0.00 | 0.00 | 66 | 1016.4 |
| 20260507145517 | 54 | 172 | 4.3 | 6.1 | 0.00 | 0.00 | 0.00 | 65 | 1016.7 |
| 20260507144017 | 54 | 176 | 3.5 | 3.5 | 0.00 | 0.00 | 0.00 | 65 | 1016.6 |
| 20260507142517 | 54 | 162 | 4.3 | 6.1 | 0.00 | 0.00 | 0.00 | 67 | 1016.7 |
| 20260507141017 | 54 | 174 | 2.6 | 3.5 | 0.00 | 0.00 | 0.00 | 66 | 1017.0 |
| 20260507135517 | 54 | 178 | 3.5 | 3.5 | 0.00 | 0.00 | 0.00 | 65 | 1016.9 |
| 20260507134017 | 54 | 192 | 5.2 | 7.0 | 0.00 | 0.00 | 0.00 | 64 | 1016.8 |
| 20260507132517 | 55 | 165 | 4.3 | 5.2 | 0.00 | 0.00 | 0.00 | 63 | 1016.9 |
| 20260507131017 | 55 | 141 | 4.3 | 6.1 | 0.00 | 0.00 | 0.00 | 64 | 1016.8 |
| 20260507125517 | 55 | 132 | 5.2 | 6.1 | 0.00 | 0.00 | 0.00 | 65 | 1016.8 |
| 20260507124017 | 55 | 184 | 2.6 | 5.2 | 0.00 | 0.00 | 0.00 | 67 | 1016.8 |
| 20260507122517 | 54 | 166 | 4.3 | 7.0 | 0.00 | 0.00 | 0.00 | 68 | 1017.2 |
| 20260507121017 | 54 | 174 | 3.5 | 6.1 | 0.00 | 0.00 | 0.00 | 70 | 1017.3 |
| 20260507115517 | 54 | 182 | 0.9 | 0.9 | 0.00 | 0.00 | 0.00 | 71 | 1017.2 |
| 20260507114017 | 52 | 124 | 2.6 | 5.2 | 0.00 | 0.00 | 0.00 | 74 | 1017.3 |
| 20260507112517 | 50 | 124 | 3.5 | 7.0 | 0.00 | 0.00 | 0.00 | 77 | 1017.6 |
| 20260507111017 | 50 | 106 | 4.3 | 7.0 | 0.00 | 0.00 | 0.00 | 78 | 1017.4 |
| 20260507105517 | 49 | 172 | 4.3 | 6.1 | 0.00 | 0.00 | 0.00 | 79 | 1017.7 |
| 20260507104017 | 49 | 164 | 3.5 | 5.2 | 0.00 | 0.00 | 0.00 | 79 | 1017.6 |
| 20260507102517 | 48 | 172 | 3.5 | 6.1 | 0.00 | 0.00 | 0.00 | 80 | 1017.6 |